Location: Minneapolis
(45.0000°N, 93.0000°W)
Time: 19:30:41
(UTC-05:00)

Vanguard 1 Rocket - Visible Passes

Search period start: 17 June 2018 00:00
Search period end: 27 June 2018 00:00
Orbit: 653 x 4224 km, 34.3° (Epoch: 17 June)

Date Brightness Start Highest point End Pass type
(mag) Time Alt. Az. Time Alt. Az. Time Alt. Az.
17 Jun 10.0 00:22:59 10° WSW 00:31:38 27° SSW 00:34:38 25° S visible
17 Jun 9.6 23:12:00 10° WSW 23:19:36 32° SSW 23:26:24 21° SSE visible
18 Jun 10.6 01:39:53 10° WSW 01:43:36 14° SW 01:43:36 14° SW visible
18 Jun 9.2 22:01:32 10° WSW 22:08:01 35° S 22:18:20 12° SE visible
19 Jun 10.2 00:27:05 10° WSW 00:34:35 21° SSW 00:35:32 21° SSW visible
19 Jun 9.8 23:15:43 10° WSW 23:22:38 25° SSW 23:27:36 20° S visible
20 Jun 9.3 22:05:02 10° WSW 22:11:05 29° SSW 22:19:46 12° SE visible
21 Jun 10.4 00:32:00 10° WSW 00:36:59 15° SSW 00:36:59 15° SSW visible
21 Jun 10.0 23:19:47 10° WSW 23:25:42 19° SSW 23:29:14 17° S visible
22 Jun 9.5 22:08:44 10° WSW 22:14:10 23° SSW 22:21:33 12° SSE visible
23 Jun 10.2 23:24:47 10° SW 23:28:47 13° SSW 23:31:10 12° S visible
24 Jun 9.8 22:12:50 10° WSW 22:17:18 17° SSW 22:23:24 10° SSE visible
26 Jun 10.0 22:18:10 10° SW 22:20:25 11° SSW 22:23:02 10° S visible
